DF1NIF-13 Weather Reports


time (UTC)temp
F
wind
direction
speed
knots
gust
knots
rain 1hr
in
rain 24hr
in
rain mn
in
humidity
%
barometer
mb
20260901001013 58 174 3.5 6.1 0.00 0.00 0.00 88 972.6
20260901000553 58 174 3.5 2.6 0.00 0.00 0.00 88 972.4
20260901000118 58 174 0.9 4.3 0.00 0.00 0.00 88 972.6
20260831235648 58 285 0.9 4.3 0.00 0.00 0.00 88 972.7
20260831235223 58 285 0.9 4.3 0.00 0.00 0.00 88 972.5
20260831234759 58 285 0.9 4.3 0.00 0.00 0.00 88 972.6
20260831234338 58 285 0.9 0.9 0.00 0.00 0.00 88 972.5
20260831233923 58 166 2.6 2.6 0.00 0.00 0.00 88 972.5
20260831233448 58 166 3.5 2.6 0.00 0.00 0.00 88 972.6
20260831232953 58 166 3.5 4.3 0.00 0.00 0.00 88 972.7
20260831232523 58 166 0.9 0.9 0.00 0.00 0.00 88 972.6
20260831232058 58 166 0.9 2.6 0.00 0.00 0.00 88 972.8
20260831231638 58 166 0.9 2.6 0.00 0.00 0.00 88 972.8
20260831231218 58 206 0.9 2.6 0.00 0.00 0.00 88 972.8
20260831230748 59 206 1.7 2.6 0.00 0.00 0.00 88 972.5
20260831230333 59 206 0.0 2.6 0.00 0.00 0.00 88 972.7
20260831225838 59 157 0.0 2.6 0.00 0.00 0.00 88 972.6
20260831225403 59 157 1.7 4.3 0.00 0.00 0.00 88 972.7
20260831224918 59 157 1.7 7.8 0.00 0.00 0.00 88 972.7
20260831224448 59 157 0.0 6.1 0.00 0.00 0.00 88 972.5
20260831224008 59 157 0.0 2.6 0.00 0.00 0.00 88 972.6
20260831223528 59 220 0.0 4.3 0.00 0.00 0.00 88 972.6
20260831223118 59 220 0.0 2.6 0.00 0.00 0.00 88 972.5
20260831222633 59 220 0.0 2.6 0.00 0.00 0.00 88 972.5
20260831222143 59 257 0.0 2.6 0.00 0.00 0.00 88 972.6
20260831221723 59 359 2.6 4.3 0.00 0.00 0.00 88 972.7
20260831221243 59 359 0.9 2.6 0.00 0.00 0.00 88 972.7
20260831220819 59 359 2.6 0.9 0.00 0.00 0.00 88 972.4
20260831220343 59 359 2.6 4.3 0.00 0.00 0.00 83 972.6
20260831215853 59 359 0.0 0.0 0.00 0.00 0.00 83 972.6
20260831215438 59 344 0.0 0.0 0.00 0.00 0.00 83 972.5
20260831214948 59 344 0.0 0.9 0.00 0.00 0.00 83 972.8
20260831214523 61 344 6.1 9.6 0.00 0.00 0.00 83 972.7
20260831214043 61 344 1.7 9.6 0.00 0.00 0.00 83 972.6
20260831213603 61 344 1.7 6.1 0.00 0.00 0.00 64 972.6
20260831213148 61 353 1.7 4.3 0.00 0.00 0.00 64 972.5
20260831212723 61 306 1.7 12.2 0.00 0.00 0.00 64 972.3
20260831212248 61 306 1.7 12.2 0.00 0.00 0.00 64 972.3
20260831211819 61 306 7.0 15.6 0.00 0.00 0.00 64 972.5
20260831211408 62 265 3.5 7.8 0.00 0.00 0.00 64 972.5
20260831210938 62 265 0.9 7.8 0.00 0.00 0.00 64 972.3
20260831210458 62 265 0.9 2.6 0.00 0.00 0.00 64 972.2
20260831210039 62 265 0.9 0.9 0.00 0.00 0.00 64 972.0
20260831205553 62 265 0.9 2.6 0.00 0.00 0.00 64 971.9
20260831205133 62 265 0.9 2.6 0.00 0.00 0.00 64 972.1
20260831204639 62 178 0.9 4.3 0.00 0.00 0.00 64 971.8
20260831204203 62 306 0.9 4.3 0.00 0.00 0.00 64 971.7
20260831203719 62 312 0.9 2.6 0.00 0.00 0.00 64 971.7
20260831203243 62 312 3.5 2.6 0.00 0.00 0.00 64 971.7
20260831202811 62 275 1.7 2.6 0.00 0.00 0.00 64 971.8
20260831202348 62 275 1.7 4.3 0.00 0.00 0.00 64 971.5
20260831201938 65 275 1.7 6.1 0.00 0.00 0.00 64 971.5
20260831201513 65 275 0.9 4.3 0.00 0.00 0.00 64 971.6
20260831201033 65 275 1.7 7.8 0.00 0.00 0.00 64 971.6
20260831200618 65 275 1.7 7.8 0.00 0.00 0.00 64 971.4
20260831200153 65 275 2.6 9.6 0.00 0.00 0.00 64 971.4
20260831195708 65 134 8.7 9.6 0.00 0.00 0.00 64 971.4
20260831195218 65 300 8.7 7.8 0.00 0.00 0.00 64 971.3
20260831194758 65 300 5.2 12.2 0.00 0.00 0.00 64 971.2
20260831194338 65 300 5.2 9.6 0.00 0.00 0.00 64 971.2
20260831193918 65 300 5.2 17.4 0.00 0.00 0.00 64 971.1
20260831193502 65 300 5.2 6.1 0.00 0.00 0.00 64 971.0
20260831193033 65 197 5.2 15.6 0.00 0.00 0.00 64 971.0
20260831192628 65 197 4.3 20.0 0.00 0.00 0.00 60 971.0
20260831192219 65 197 4.3 20.0 0.00 0.00 0.00 60 970.9
20260831191748 65 197 2.6 19.1 0.00 0.00 0.00 60 971.0
20260831191313 65 212 6.1 12.2 0.00 0.00 0.00 60 970.8
20260831190848 65 212 3.5 13.9 0.00 0.00 0.00 60 970.6
20260831190418 65 212 2.6 13.9 0.00 0.00 0.00 60 970.7
20260831185953 65 250 2.6 13.9 0.00 0.00 0.00 49 970.7
20260831185519 66 250 2.6 17.4 0.00 0.00 0.00 49 970.7
20260831185045 66 250 2.6 17.4 0.00 0.00 0.00 49 970.9
20260831184613 66 250 2.6 15.6 0.00 0.00 0.00 49 970.9
20260831184148 66 315 2.6 13.9 0.00 0.00 0.00 49 970.8
20260831183728 67 315 2.6 9.6 0.00 0.00 0.00 49 970.7
20260831183259 67 342 6.1 13.9 0.00 0.00 0.00 49 970.5
20260831182833 67 289 5.2 13.9 0.00 0.00 0.00 49 970.7
20260831182423 68 319 5.2 13.9 0.00 0.00 0.00 49 970.3
20260831181939 68 319 5.2 12.2 0.00 0.00 0.00 49 970.2
20260831181448 68 319 3.5 17.4 0.00 0.00 0.00 49 970.0
20260831181013 69 314 3.5 9.6 0.00 0.00 0.00 49 969.7
20260831180603 69 314 2.6 12.2 0.00 0.00 0.00 49 969.5
20260831180135 69 314 2.6 11.3 0.00 0.00 0.00 49 969.2
20260831175723 69 314 5.2 11.3 0.00 0.00 0.00 44 969.1
20260831175301 69 314 7.0 12.2 0.00 0.00 0.00 44 969.0
20260831174828 69 314 1.7 7.8 0.00 0.00 0.00 44 969.0
20260831174403 69 314 6.1 7.8 0.00 0.00 0.00 44 969.2
20260831173943 69 341 6.1 7.8 0.00 0.00 0.00 44 969.2
20260831173525 69 341 6.1 4.3 0.00 0.00 0.00 44 969.2
20260831173103 69 341 1.7 4.3 0.00 0.00 0.00 44 969.2
20260831172653 69 341 1.7 11.3 0.00 0.00 0.00 44 969.1
20260831172218 69 341 1.7 11.3 0.00 0.00 0.00 44 969.2
20260831171759 69 341 5.2 9.6 0.00 0.00 0.00 44 969.3
20260831171323 69 256 3.5 12.2 0.00 0.00 0.00 44 969.3
20260831170858 69 267 7.0 11.3 0.00 0.00 0.00 44 969.3
20260831170439 69 267 1.7 9.6 0.00 0.00 0.00 44 969.2
20260831165959 71 289 1.7 9.6 0.00 0.00 0.00 44 969.2
20260831165548 71 289 0.0 9.6 0.00 0.00 0.00 44 969.3
20260831165118 71 289 4.3 11.3 0.00 0.00 0.00 44 969.3
20260831164633 71 296 2.6 17.4 0.00 0.00 0.00 44 969.6
20260831164148 71 271 7.8 20.0 0.00 0.00 0.00 44 969.3
20260831163743 71 271 3.5 17.4 0.00 0.00 0.00 44 969.4
20260831163333 71 334 7.0 19.1 0.00 0.00 0.00 44 969.4
20260831162859 71 334 7.0 12.2 0.00 0.00 0.00 44 969.4
20260831162413 72 301 3.5 17.4 0.00 0.00 0.00 44 969.3
20260831161933 72 151 3.5 15.6 0.00 0.00 0.00 44 969.0
20260831161503 72 138 7.8 9.6 0.00 0.00 0.00 42 969.2
20260831161053 73 138 7.8 9.6 0.00 0.00 0.00 42 969.2
20260831160638 73 253 9.6 20.0 0.00 0.00 0.00 41 969.2
20260831160158 73 253 2.6 6.1 0.00 0.00 0.00 41 969.3
20260831155719 72 333 0.0 7.8 0.00 0.00 0.00 100 969.4
20260831155248 71 329 7.0 20.0 0.00 0.00 0.00 42 969.2
20260831154758 71 323 7.0 9.6 0.00 0.00 0.00 42 969.2
20260831154339 71 264 4.3 15.6 0.00 0.00 0.00 42 969.0
20260831153933 71 99 3.5 17.4 0.00 0.00 0.00 42 969.0
20260831153438 72 267 10.4 21.7 0.00 0.00 0.00 44 969.1
20260831152958 72 267 10.4 31.3 0.00 0.00 0.00 44 969.0
20260831152513 73 197 5.2 17.4 0.00 0.00 0.00 44 969.2
20260831152048 72 308 5.2 29.5 0.00 0.00 0.00 44 969.3
20260831151613 72 125 5.2 11.3 0.00 0.00 0.00 44 969.1
20260831151143 72 125 2.6 11.3 0.00 0.00 0.00 44 968.9
20260831150713 72 277 5.2 6.1 0.00 0.00 0.00 44 969.2
20260831150238 73 277 10.4 19.1 0.00 0.00 0.00 44 969.1
20260831145758 73 114 10.4 19.1 0.00 0.00 0.00 44 969.2
20260831145328 73 114 8.7 12.2 0.00 0.00 0.00 46 969.2
20260831144923 73 114 10.4 13.9 0.00 0.00 0.00 46 969.3
20260831144458 73 114 8.7 13.9 0.00 0.00 0.00 47 969.1
20260831144043 73 328 2.6 13.9 0.00 0.00 0.00 47 969.2
20260831143603 72 316 6.1 17.4 0.00 0.00 0.00 47 969.2
20260831143143 72 350 6.1 19.1 0.00 0.00 0.00 48 969.2
20260831142713 72 269 3.5 20.0 0.00 0.00 0.00 48 969.0
20260831142228 72 157 3.5 12.2 0.00 0.00 0.00 48 969.4
20260831141753 72 271 10.4 12.2 0.00 0.00 0.00 48 969.2
20260831141328 72 298 3.5 12.2 0.00 0.00 0.00 48 969.2
20260831140903 72 239 8.7 21.7 0.00 0.00 0.00 48 968.9
20260831140438 71 126 7.0 12.2 0.00 0.00 0.00 48 969.1
20260831140028 71 126 7.0 13.9 0.00 0.00 0.00 48 969.2
20260831135603 72 206 7.0 25.2 0.00 0.00 0.00 48 968.9
20260831135138 72 320 3.5 21.7 0.00 0.00 0.00 48 969.3
20260831134708 73 281 5.2 9.6 0.00 0.00 0.00 48 969.2
20260831134233 72 114 3.5 9.6 0.00 0.00 0.00 48 969.4
20260831133823 72 114 5.2 13.9 0.00 0.00 0.00 52 969.4
20260831133343 72 114 4.3 19.1 0.00 0.00 0.00 52 969.1
20260831132938 72 152 3.5 15.6 0.00 0.00 0.00 52 969.2
20260831132503 70 259 4.3 19.1 0.00 0.00 0.00 51 969.4
20260831132058 70 259 2.6 9.6 0.00 0.00 0.00 51 969.4
20260831131619 70 276 7.8 12.2 0.00 0.00 0.00 51 969.5
20260831131213 71 315 7.8 17.4 0.00 0.00 0.00 51 969.5
20260831130723 71 352 4.3 17.4 0.00 0.00 0.00 51 969.6
20260831130253 71 129 7.8 19.1 0.00 0.00 0.00 51 969.5
20260831125828 71 228 12.2 15.6 0.00 0.00 0.00 51 969.6
20260831125358 72 228 5.2 15.6 0.00 0.00 0.00 51 969.4
20260831124943 72 133 3.5 15.6 0.00 0.00 0.00 56 969.4
20260831124508 71 133 6.1 15.6 0.00 0.00 0.00 56 969.6
20260831124048 71 296 6.1 13.9 0.00 0.00 0.00 56 969.5
20260831123613 71 311 1.7 21.7 0.00 0.00 0.00 56 969.3
20260831123138 69 311 1.7 6.1 0.00 0.00 0.00 56 969.7
20260831122718 70 311 10.4 11.3 0.00 0.00 0.00 56 969.5
20260831122251 70 186 12.2 15.6 0.00 0.00 0.00 56 969.4
20260831121838 70 153 5.2 11.3 0.00 0.00 0.00 56 969.7
20260831121403 69 329 5.2 11.3 0.00 0.00 0.00 56 969.5
20260831120928 69 143 5.2 20.0 0.00 0.00 0.00 56 969.7
20260831120458 69 143 2.6 0.9 0.00 0.00 0.00 56 969.7
20260831120028 69 143 4.3 0.9 0.00 0.00 0.00 56 969.4
20260831115527 69 32 7.8 6.1 0.00 0.00 0.00 58 969.6
20260831115118 69 32 7.8 6.1 0.00 0.00 0.00 58 969.6
20260831114633 69 15 7.8 6.1 0.00 0.00 0.00 58 969.6
20260831114218 68 15 4.3 6.1 0.00 0.00 0.00 59 969.6
20260831113753 68 319 2.6 11.3 0.00 0.00 0.00 58 969.7
20260831113323 68 308 5.2 12.2 0.00 0.00 0.00 58 969.5
20260831112858 68 308 4.3 13.9 0.00 0.00 0.00 58 969.5
20260831112403 69 320 4.3 13.9 0.00 0.00 0.00 57 969.6
20260831111933 70 320 3.5 13.9 0.00 0.00 0.00 57 969.7
20260831111513 69 320 3.5 13.9 0.00 0.00 0.00 59 969.9
20260831111038 70 128 6.1 17.4 0.00 0.00 0.00 59 969.7
20260831110558 70 139 4.3 13.9 0.00 0.00 0.00 59 969.6
20260831110138 70 158 11.3 19.1 0.00 0.00 0.00 59 969.7
20260831105708 69 110 11.3 19.1 0.00 0.00 0.00 59 969.7
20260831105218 69 280 4.3 19.1 0.00 0.00 0.00 63 969.9
20260831104759 69 280 8.7 19.1 0.00 0.00 0.00 63 969.8
20260831104348 69 287 6.1 25.2 0.00 0.00 0.00 63 969.7
20260831103859 69 210 1.7 12.2 0.00 0.00 0.00 63 969.7
20260831103408 68 322 5.2 12.2 0.00 0.00 0.00 64 969.6
20260831102918 67 324 5.2 13.9 0.00 0.00 0.00 64 969.6
20260831102453 67 303 5.2 13.9 0.00 0.00 0.00 68 969.7
20260831102033 67 292 6.1 13.9 0.00 0.00 0.00 68 969.6
20260831101603 68 211 5.2 13.9 0.00 0.00 0.00 68 969.6
20260831101123 68 243 5.2 13.9 0.00 0.00 0.00 68 969.5
20260831100633 66 306 9.6 19.1 0.00 0.00 0.00 68 969.7
20260831100158 66 310 5.2 9.6 0.00 0.00 0.00 68 969.8
20260831095739 67 336 5.2 11.3 0.00 0.00 0.00 68 969.8
20260831095319 66 315 4.3 12.2 0.00 0.00 0.00 68 969.8
20260831094843 66 293 7.8 12.2 0.00 0.00 0.00 68 969.7
20260831094408 66 113 1.7 12.2 0.00 0.00 0.00 72 969.8
20260831093958 66 113 0.0 9.6 0.00 0.00 0.00 71 969.7
20260831093528 65 240 1.7 11.3 0.00 0.00 0.00 71 970.1
20260831093113 65 87 4.3 7.8 0.00 0.00 0.00 71 969.9
20260831092638 65 87 6.1 11.3 0.00 0.00 0.00 71 970.0
20260831092223 66 328 2.6 11.3 0.00 0.00 0.00 71 969.9
20260831091808 65 330 2.6 7.8 0.00 0.00 0.00 71 969.9
20260831091339 68 114 2.6 7.8 0.00 0.00 0.00 71 970.1
20260831090923 68 94 2.6 21.7 0.00 0.00 0.00 71 969.8
20260831090458 66 292 3.5 9.6 0.00 0.00 0.00 71 970.0
20260831090019 66 355 2.6 13.9 0.00 0.00 0.00 75 969.8
20260831085539 65 331 2.6 13.9 0.00 0.00 0.00 75 969.8
20260831085113 65 333 3.5 6.1 0.00 0.00 0.00 75 969.7
20260831084633 65 305 4.3 7.8 0.00 0.00 0.00 75 969.8
20260831084208 65 307 9.6 13.9 0.00 0.00 0.00 75 969.7
20260831083753 64 307 9.6 13.9 0.00 0.00 0.00 75 969.8
20260831083333 64 329 8.7 19.1 0.00 0.00 0.00 75 969.8
20260831082913 64 321 9.6 23.5 0.00 0.00 0.00 75 969.7
20260831082508 64 350 0.0 23.5 0.00 0.00 0.00 75 969.8
20260831082019 64 263 0.0 23.5 0.00 0.00 0.00 100 970.0
20260831081548 63 284 3.5 12.2 0.00 0.00 0.00 78 969.9
20260831081111 63 310 6.1 12.2 0.00 0.00 0.00 86 969.5
20260831080658 63 207 4.3 17.4 0.00 0.00 0.00 86 969.5
20260831080243 63 328 4.3 9.6 0.00 0.00 0.00 86 969.5
20260831075828 63 328 3.5 23.5 0.00 0.00 0.00 86 969.5
20260831075358 63 328 4.3 23.5 0.00 0.00 0.00 86 969.7
20260831074928 64 113 4.3 6.1 0.00 0.00 0.00 86 969.4
20260831074518 64 113 4.3 6.1 0.00 0.00 0.00 86 969.5
20260831074101 62 73 4.3 7.8 0.00 0.00 0.00 86 969.4
20260831073638 62 262 4.3 4.3 0.00 0.00 0.00 86 969.7
20260831073203 62 187 2.6 4.3 0.00 0.00 0.00 86 969.2
20260831072723 62 308 5.2 0.0 0.00 0.00 0.00 90 969.2
20260831072259 61 355 1.7 6.1 0.00 0.00 0.00 90 969.2
20260831071833 61 297 3.5 2.6 0.00 0.00 0.00 90 969.2
20260831071359 61 307 0.0 2.6 0.00 0.00 0.00 91 969.3
20260831070928 61 307 3.5 6.1 0.00 0.00 0.00 91 969.3
20260831070448 61 307 1.7 7.8 0.00 0.00 0.00 94 969.2
20260831070028 61 307 3.5 7.8 0.00 0.00 0.00 94 969.0
20260831065618 61 307 3.5 11.3 0.00 0.00 0.00 94 968.9
20260831065139 61 307 5.2 6.1 0.00 0.00 0.00 94 968.8
20260831064728 61 307 0.0 13.9 0.00 0.00 0.00 94 968.7
20260831064313 61 307 3.5 13.9 0.00 0.00 0.00 94 968.7
20260831063848 61 307 4.3 17.4 0.00 0.00 0.00 94 968.7
20260831063428 61 104 4.3 17.4 0.00 0.00 0.00 94 968.6
20260831063008 61 104 5.2 7.8 0.00 0.00 0.00 94 968.6
20260831062543 60 104 2.6 7.8 0.00 0.00 0.00 94 968.7
20260831062058 60 104 2.6 4.3 0.00 0.00 0.00 94 968.6
20260831061618 60 104 2.6 4.3 0.00 0.00 0.00 94 968.5
20260831061133 60 104 1.7 7.8 0.00 0.00 0.00 94 968.5
20260831060708 60 104 1.7 7.8 0.00 0.00 0.00 94 968.3
20260831060248 60 104 2.6 7.8 0.00 0.00 0.00 94 968.5
20260831055833 60 104 6.1 7.8 0.00 0.00 0.00 94 968.5
20260831055359 60 104 1.7 7.8 0.00 0.00 0.00 94 968.4
20260831054933 60 104 0.9 4.3 0.00 0.00 0.00 94 968.3
20260831054518 60 104 0.9 0.0 0.00 0.00 0.00 94 968.1
20260831054053 60 104 0.9 0.0 0.00 0.00 0.00 94 968.0
20260831053643 60 104 0.0 0.0 0.00 0.00 0.00 94 968.0
20260831053203 60 104 0.0 0.9 0.00 0.00 0.00 94 967.9
20260831052738 60 104 0.0 0.9 0.00 0.00 0.00 94 968.0
20260831052243 60 104 0.0 0.9 0.00 0.00 0.00 94 967.9
20260831051758 60 104 0.0 0.9 0.00 0.00 0.00 94 967.9
20260831051323 60 104 0.9 0.9 0.00 0.00 0.00 94 967.9
20260831050853 60 104 0.9 0.9 0.00 0.00 0.00 94 967.9
20260831050413 60 104 0.9 7.8 0.00 0.00 0.00 94 967.9
20260831045953 60 104 0.0 0.9 0.00 0.00 0.00 94 968.0
20260831045512 60 104 0.0 0.0 0.00 0.00 0.00 94 967.7
20260831045033 60 104 0.0 0.0 0.00 0.00 0.00 94 967.6
20260831044606 60 104 0.9 0.9 0.00 0.00 0.00 94 967.5
20260831044138 60 104 0.9 0.9 0.00 0.00 0.00 94 967.7
20260831043703 60 104 0.9 0.9 0.00 0.00 0.00 94 967.6
20260831043238 60 104 0.9 0.9 0.00 0.00 0.00 94 967.5
20260831042758 60 104 0.9 0.9 0.00 0.00 0.00 94 967.6
20260831042308 60 104 0.9 4.3 0.00 0.00 0.00 94 967.4
20260831041858 60 102 3.5 0.0 0.00 0.00 0.00 94 967.3
20260831041423 60 102 1.7 0.0 0.00 0.00 0.00 94 967.7
20260831041003 60 103 0.9 0.0 0.00 0.00 0.00 94 967.5
20260831040533 60 103 0.9 0.0 0.00 0.00 0.00 94 967.7
20260831040128 60 103 0.9 0.0 0.00 0.00 0.00 94 967.7
20260831035643 60 103 0.9 4.3 0.00 0.00 0.00 94 967.7
20260831035213 60 103 0.9 4.3 0.00 0.00 0.00 94 967.8
20260831034758 60 103 1.7 4.3 0.00 0.00 0.00 94 968.0
20260831034313 60 107 1.7 4.3 0.00 0.00 0.00 94 968.2
20260831033823 60 105 7.0 4.3 0.00 0.00 0.00 94 968.3
20260831033353 60 105 7.0 4.3 0.00 0.00 0.00 94 968.5
20260831032923 60 105 0.9 11.3 0.00 0.00 0.00 88 968.4
20260831032503 60 105 0.9 4.3 0.00 0.00 0.00 88 968.8
20260831032047 60 231 0.9 21.7 0.00 0.00 0.00 88 968.9
20260831031558 60 250 0.9 11.3 0.00 0.00 0.00 88 968.1
20260831031113 61 102 0.9 2.6 0.00 0.00 0.00 86 967.2
20260831030613 61 102 0.9 2.6 0.00 0.00 0.00 85 966.4
20260831030128 61 239 0.9 2.6 0.00 0.00 0.00 85 966.3
20260831025658 61 239 0.0 2.6 0.00 0.00 0.00 85 966.8
20260831025228 61 239 2.6 4.3 0.00 0.00 0.00 85 966.8
20260831024759 61 239 2.6 2.6 0.00 0.00 0.00 85 966.7
20260831024338 61 239 0.9 0.9 0.00 0.00 0.00 85 966.8
20260831023923 61 239 0.9 0.9 0.00 0.00 0.00 85 966.8
20260831023438 61 239 0.0 2.6 0.00 0.00 0.00 85 966.6
20260831022958 61 239 0.0 0.9 0.00 0.00 0.00 85 966.8
20260831022518 61 239 0.0 2.6 0.00 0.00 0.00 85 966.8
20260831022023 61 239 0.0 0.0 0.00 0.00 0.00 85 966.9
20260831021553 60 239 0.0 0.9 0.00 0.00 0.00 85 967.1
20260831021138 60 239 0.0 0.9 0.00 0.00 0.00 85 966.9
20260831020719 60 239 0.0 0.0 0.00 0.00 0.00 85 967.4
20260831020239 60 239 0.0 0.0 0.00 0.00 0.00 85 967.0
20260831015758 60 239 0.0 0.9 0.00 0.00 0.00 85 967.1
20260831015305 60 239 0.0 0.9 0.00 0.00 0.00 85 967.1
20260831014833 60 239 0.0 0.9 0.00 0.00 0.00 85 967.1
20260831014358 60 239 0.0 0.9 0.00 0.00 0.00 85 967.2
20260831013933 60 239 0.0 0.9 0.00 0.00 0.00 85 967.3
20260831013508 60 239 0.0 0.9 0.00 0.00 0.00 85 967.4
20260831013023 59 239 0.9 0.9 0.00 0.00 0.00 85 967.4
20260831012619 59 239 0.0 2.6 0.00 0.00 0.00 85 967.2
20260831012203 59 239 0.0 0.9 0.00 0.00 0.00 85 967.5
20260831011739 59 239 0.9 0.0 0.00 0.00 0.00 85 967.6
20260831011318 59 239 1.7 0.0 0.00 0.00 0.00 88 967.4
20260831010858 58 239 0.0 0.0 0.00 0.00 0.00 88 967.7
20260831010419 58 239 0.0 0.9 0.00 0.00 0.00 88 967.5
20260831005933 58 239 0.0 0.9 0.00 0.00 0.00 88 967.6
20260831005458 58 239 0.0 0.0 0.00 0.00 0.00 88 967.7
20260831005019 58 239 0.0 2.6 0.00 0.00 0.00 88 967.9
20260831004538 58 239 0.0 2.6 0.00 0.00 0.00 88 967.9
20260831004113 58 239 0.0 0.9 0.00 0.00 0.00 88 968.1
20260831003643 58 239 0.9 2.6 0.00 0.00 0.00 88 968.0
20260831003213 58 239 0.0 0.0 0.00 0.00 0.00 89 968.1
20260831002728 58 239 0.0 0.0 0.00 0.00 0.00 88 968.1
20260831002253 58 282 0.0 0.9 0.00 0.00 0.00 88 968.2
20260831001843 58 282 0.0 0.9 0.00 0.00 0.00 88 968.2
20260831001419 58 282 0.0 0.9 0.00 0.00 0.00 86 968.4